Location: Alphen
(52.1351°N, 4.6549°E)
Time: 01:52:34
(UTC+00:00)

BREEZE M DEB (TANK) - Pass Details

Date: 27 January 2021
Orbit: 283 x 14500 km, 49.5° (Epoch: 26 February)

Event Time Altitude Azimuth Distance (km) Brightness Sun altitude
Exits shadow 06:08:39 - 219° (SW) 1,597 4.4 -12.2°
Reaches altitude 10° 06:09:19 10° 212° (SSW) 1,308 4.1 -12.2°
Maximum altitude 06:11:35 31° 145° (SE) 885 3.9 -11.8°
Drops below altitude 10° 06:16:20 10° 83° (E) 2,807 7.1 -11.1°
Sets 06:21:20 0° 76° (ENE) 5,141 8.4 -10.4°
